• In Uzbekistan
  • List of Countries
  • For 7 days
  • Water Temperature
  • Satellite Maps
  • Weather Map
  • Weather Widgets
  • user-avatar
    Login

    Hourly Weather Kutaisi

    Today, 24 November, Friday

    Time Temperature Precipitation Wind Pressure Humidity
    00:00 +2°C° 0.6 mm 0 mps 751 mmHg 94%
    01:00 +3°C° 0.5 mm 1 mps 751 mmHg 94%
    02:00 +3°C° 0.5 mm 1 mps 752 mmHg 94%
    03:00 +3°C° 0 mm 1 mps 751 mmHg 93%
    04:00 +3°C° 0.3 mm 1 mps 751 mmHg 93%
    05:00 +3°C° 0.3 mm 1 mps 751 mmHg 93%
    06:00 +3°C° 0.3 mm 1 mps 751 mmHg 93%
    07:00 +3°C° 0.2 mm 1 mps 752 mmHg 90%
    08:00 +3°C° 0.2 mm 1 mps 752 mmHg 88%
    09:00 +4°C° 0 mm 1 mps 751 mmHg 84%
    10:00 +4°C° 0.6 mm 1 mps 751 mmHg 84%
    11:00 +4°C° 0.6 mm 1 mps 751 mmHg 84%
    12:00 +4°C° 0.6 mm 1 mps 750 mmHg 84%
    13:00 +4°C° 1.2 mm 1 mps 751 mmHg 86%
    14:00 +4°C° 1.2 mm 1 mps 751 mmHg 87%
    15:00 +4°C° 1.2 mm 1 mps 751 mmHg 88%
    16:00 +3°C° 1.4 mm 1 mps 751 mmHg 90%
    17:00 +3°C° 1.4 mm 1 mps 751 mmHg 91%
    18:00 +3°C° 1.4 mm 1 mps 752 mmHg 92%
    19:00 +3°C° 1.3 mm 1 mps 752 mmHg 93%
    20:00 +3°C° 1.3 mm 1 mps 752 mmHg 93%
    21:00 +2°C° 1.3 mm 1 mps 752 mmHg 93%
    22:00 +2°C° 1.1 mm 1 mps 753 mmHg 93%
    23:00 +2°C° 1.1 mm 1 mps 753 mmHg 94%

    Tomorrow, 25 November, Saturday

    Time Temperature Precipitation Wind Pressure Humidity
    00:00 +2°C° 1.1 mm 1 mps 754 mmHg 94%
    01:00 +2°C° 0.6 mm 1 mps 754 mmHg 94%
    02:00 +2°C° 0.6 mm 1 mps 755 mmHg 93%
    03:00 +2°C° 0.6 mm 1 mps 755 mmHg 93%
    04:00 +1°C° 0.1 mm 1 mps 756 mmHg 92%
    05:00 +1°C° 0.1 mm 1 mps 757 mmHg 92%
    06:00 +1°C° 0.1 mm 1 mps 757 mmHg 91%
    07:00 +1°C° 0 mm 1 mps 758 mmHg 89%
    08:00 +2°C° 0 mm 1 mps 758 mmHg 87%
    09:00 +3°C° 0 mm 1 mps 758 mmHg 84%
    10:00 +4°C° 0 mm 1 mps 758 mmHg 84%
    11:00 +5°C° 0 mm 1 mps 757 mmHg 84%
    12:00 +6°C° 0 mm 1 mps 757 mmHg 84%
    13:00 +6°C° 0 mm 1 mps 757 mmHg 84%
    14:00 +6°C° 0 mm 1 mps 756 mmHg 85%
    15:00 +6°C° 0 mm 1 mps 756 mmHg 86%
    16:00 +5°C° 0 mm 1 mps 757 mmHg 85%
    17:00 +3°C° 0 mm 2 mps 757 mmHg 84%
    18:00 +1°C° 0 mm 2 mps 758 mmHg 84%
    19:00 +1°C° 0 mm 2 mps 758 mmHg 81%
    20:00 0°C° 0 mm 3 mps 757 mmHg 78%
    21:00 0°C° 0 mm 3 mps 757 mmHg 75%
    22:00 0°C° 0 mm 3 mps 757 mmHg 74%
    23:00 0°C° 0 mm 3 mps 757 mmHg 72%

    Day after tomorrow, 26 November, Sunday

    Time Temperature Precipitation Wind Pressure Humidity
    00:00 0°C° 0 mm 3 mps 757 mmHg 70%
    01:00 0°C° 0 mm 3 mps 757 mmHg 70%
    02:00 0°C° 0 mm 3 mps 757 mmHg 69%
    03:00 0°C° 0 mm 3 mps 757 mmHg 69%
    04:00 0°C° 0 mm 3 mps 757 mmHg 69%
    05:00 0°C° 0 mm 3 mps 757 mmHg 68%
    06:00 0°C° 0 mm 3 mps 756 mmHg 68%
    07:00 +1°C° 0 mm 3 mps 756 mmHg 68%
    08:00 +2°C° 0 mm 3 mps 756 mmHg 67%
    09:00 +3°C° 0 mm 3 mps 756 mmHg 66%
    10:00 +4°C° 0 mm 3 mps 755 mmHg 68%
    11:00 +7°C° 0 mm 2 mps 754 mmHg 69%
    12:00 +8°C° 0 mm 2 mps 753 mmHg 70%
    13:00 +8°C° 0 mm 2 mps 753 mmHg 72%
    14:00 +8°C° 0 mm 2 mps 753 mmHg 74%
    15:00 +9°C° 0 mm 1 mps 752 mmHg 76%
    16:00 +7°C° 0 mm 2 mps 753 mmHg 75%
    17:00 +5°C° 0 mm 2 mps 753 mmHg 74%
    18:00 +4°C° 0 mm 2 mps 754 mmHg 73%
    19:00 +3°C° 0 mm 2 mps 754 mmHg 71%
    20:00 +3°C° 0 mm 2 mps 754 mmHg 70%
    21:00 +3°C° 0 mm 2 mps 754 mmHg 68%
    22:00 +3°C° 0 mm 2 mps 754 mmHg 68%
    23:00 +3°C° 0 mm 2 mps 754 mmHg 69%

    27 November, Monday

    Time Temperature Precipitation Wind Pressure Humidity
    00:00 +3°C° 0 mm 2 mps 753 mmHg 69%
    01:00 +3°C° 0 mm 2 mps 753 mmHg 70%
    02:00 +3°C° 0 mm 2 mps 753 mmHg 71%
    03:00 +3°C° 0 mm 2 mps 753 mmHg 72%
    04:00 +3°C° 0 mm 2 mps 753 mmHg 72%
    05:00 +3°C° 0 mm 2 mps 753 mmHg 72%
    06:00 +3°C° 0 mm 2 mps 753 mmHg 73%
    07:00 +4°C° 0 mm 2 mps 753 mmHg 73%
    08:00 +5°C° 0 mm 2 mps 753 mmHg 73%
    09:00 +6°C° 0 mm 2 mps 753 mmHg 73%
    10:00 +8°C° 0 mm 2 mps 752 mmHg 73%
    11:00 +10°C° 0 mm 1 mps 751 mmHg 74%
    12:00 +12°C° 0 mm 1 mps 751 mmHg 74%
    13:00 +12°C° 0 mm 1 mps 751 mmHg 77%
    14:00 +12°C° 0 mm 1 mps 750 mmHg 79%
    15:00 +11°C° 0 mm 1 mps 750 mmHg 81%
    16:00 +10°C° 0 mm 1 mps 751 mmHg 80%
    17:00 +8°C° 0 mm 2 mps 751 mmHg 79%
    18:00 +6°C° 0 mm 2 mps 751 mmHg 79%
    19:00 +6°C° 0 mm 2 mps 752 mmHg 77%
    20:00 +6°C° 0 mm 2 mps 752 mmHg 76%
    21:00 +5°C° 0 mm 2 mps 752 mmHg 75%
    22:00 +5°C° 0 mm 2 mps 752 mmHg 74%
    23:00 +5°C° 0 mm 2 mps 752 mmHg 74%

    28 November, Tuesday

    Time Temperature Precipitation Wind Pressure Humidity
    00:00 +5°C° 0 mm 2 mps 752 mmHg 73%
    01:00 +5°C° 0 mm 2 mps 752 mmHg 73%
    02:00 +5°C° 0 mm 2 mps 752 mmHg 73%
    03:00 +5°C° 0 mm 2 mps 751 mmHg 72%
    04:00 +5°C° 0 mm 2 mps 751 mmHg 72%
    05:00 +5°C° 0 mm 2 mps 751 mmHg 72%
    06:00 +4°C° 0 mm 3 mps 751 mmHg 72%
    07:00 +5°C° 0 mm 3 mps 751 mmHg 71%
    08:00 +7°C° 0 mm 2 mps 751 mmHg 70%
    09:00 +8°C° 0 mm 2 mps 751 mmHg 69%
    10:00 +9°C° 0 mm 3 mps 750 mmHg 69%
    11:00 +10°C° 0 mm 3 mps 750 mmHg 69%
    12:00 +12°C° 0 mm 3 mps 749 mmHg 68%
    13:00 +11°C° 0 mm 3 mps 749 mmHg 69%
    14:00 +11°C° 0 mm 3 mps 749 mmHg 70%
    15:00 +11°C° 0 mm 3 mps 748 mmHg 70%
    16:00 +10°C° 0 mm 3 mps 749 mmHg 70%
    17:00 +9°C° 0 mm 3 mps 749 mmHg 69%
    18:00 +8°C° 0 mm 3 mps 750 mmHg 69%
    19:00 +7°C° 0 mm 3 mps 750 mmHg 68%
    20:00 +7°C° 0 mm 3 mps 750 mmHg 66%
    21:00 +7°C° 0 mm 3 mps 750 mmHg 65%
    22:00 +7°C° 0 mm 3 mps 750 mmHg 66%
    23:00 +8°C° 0 mm 3 mps 750 mmHg 66%

    29 November, Wednesday

    Time Temperature Precipitation Wind Pressure Humidity
    00:00 +8°C° 0 mm 3 mps 750 mmHg 67%
    01:00 +8°C° 0 mm 3 mps 750 mmHg 68%
    02:00 +8°C° 0 mm 3 mps 750 mmHg 68%
    03:00 +8°C° 0 mm 3 mps 750 mmHg 69%
    04:00 +7°C° 0 mm 3 mps 750 mmHg 69%
    05:00 +7°C° 0 mm 3 mps 750 mmHg 70%
    06:00 +7°C° 0 mm 3 mps 750 mmHg 70%
    07:00 +8°C° 0 mm 3 mps 750 mmHg 69%
    08:00 +9°C° 0 mm 3 mps 750 mmHg 68%
    09:00 +10°C° 0 mm 3 mps 750 mmHg 68%
    10:00 +11°C° 0 mm 3 mps 749 mmHg 67%
    11:00 +12°C° 0 mm 3 mps 749 mmHg 67%
    12:00 +14°C° 0 mm 2 mps 748 mmHg 67%
    13:00 +14°C° 0 mm 2 mps 748 mmHg 68%
    14:00 +14°C° 0 mm 2 mps 748 mmHg 70%
    15:00 +13°C° 0 mm 2 mps 748 mmHg 72%
    16:00 +13°C° 0.1 mm 2 mps 748 mmHg 72%
    17:00 +12°C° 0.1 mm 2 mps 748 mmHg 71%
    18:00 +10°C° 0.1 mm 2 mps 749 mmHg 71%
    19:00 +10°C° 0.1 mm 2 mps 749 mmHg 71%
    20:00 +10°C° 0.1 mm 2 mps 749 mmHg 72%
    21:00 +10°C° 0.1 mm 2 mps 749 mmHg 73%
    22:00 +9°C° 0.2 mm 2 mps 749 mmHg 74%
    23:00 +9°C° 0.2 mm 2 mps 749 mmHg 75%
    Show more